[[{"header":{"parameterUnit":"m.s-1","parameterCategory":1,"la1":30.2991,"la2":30.254,"lo1":-89.0895,"lo2":-89.0444,"dy":0.0017,"dx":0.0017,"nx":28,"ny":28,"refTime":"2024-03-29T03:00:00:Z","depth":0,"parameterNumber":2,"parameterNumberName":"U-component_of_WINDS"},"data":[0,0,0,0,0,0,0,0,0,0,0,0,0,0,0,0,0,0,0,0,0,0,0,0,0,0,0,0,0,0,0,0,0,0,0,0,0,0,0,0,0,0,0,0,0,0,0,0,0,0,0,0,0,0,0,0,0,0,-2.9832,-2.9833,0,-2.9874,-2.9874,-2.9875,-2.9851,-2.985,-2.9849,-2.9848,-2.989,-2.9892,-2.9895,0,0,0,0,0,0,0,0,0,0,0,0,0,-2.9734,-2.9736,-2.9832,-2.9833,-2.9833,-2.9874,-2.9875,-2.9875,-2.9852,-2.985,-2.9849,-2.9847,-2.9889,-2.9892,-2.9895,0,0,0,0,0,0,0,0,0,0,0,0,0,-2.9776,-2.9737,-2.9832,-2.9827,-2.9826,-2.9874,-2.9875,-2.9875,-2.9852,-2.985,-2.9848,-2.9847,-2.9889,-2.9892,-2.9895,-2.995,0,0,-2.9905,-2.9907,0,0,0,0,0,0,0,0,-2.9774,-2.978,-2.9827,-2.9827,-2.9827,-2.9856,-2.9855,-2.99,-2.9852,-2.9842,-2.9848,-2.9846,-2.988,-2.9884,-2.9896,-2.9952,-2.9954,-2.9905,-2.9908,-2.9909,-2.991,0,0,0,0,0,0,0,-2.9771,-2.9778,-2.9849,-2.9828,-2.9828,-2.9822,-2.9827,-2.9864,-2.987,-2.9843,-2.9841,-2.9847,-2.988,-2.9892,-2.9896,-2.9955,-2.9905,-2.9908,-2.991,-2.9912,-3.0061,-3.0063,0,0,0,0,0,0,-2.9768,-2.9776,-2.9847,-2.985,-2.9796,-2.9826,-2.983,-2.9848,-2.987,-2.9872,-2.9848,-2.9845,-2.9888,-2.9893,-2.9898,-2.9964,-2.9909,-2.9912,-2.9914,-3.0059,-3.0062,-3.0064,0,0,0,0,0,0,-2.9766,-2.9775,-2.9846,-2.9813,-2.9821,-2.9829,-2.985,-2.985,-2.9862,-2.9874,-2.9875,-2.986,-2.9887,-2.9893,-2.9938,-2.9965,-2.9913,-2.9917,-3.0057,-3.006,-3.0063,-3.0098,0,0,0,0,0,0,-2.9764,-2.9774,-2.9795,-2.9813,-2.9823,-2.9885,-2.9851,-2.9852,-2.9868,-2.9865,-2.9885,-2.9886,-2.9886,-2.9933,-2.9941,-2.9969,-2.9919,-3.0054,-3.0058,-3.0062,-3.0094,-3.0101,-3.0108,0,0,0,0,0,-2.976,-2.9803,-2.9796,-2.9805,-2.9849,-2.9886,-2.9892,-2.989,-2.9871,-2.9892,-2.9899,-2.9886,-2.9962,-2.9938,-2.9947,-2.9976,-3.0052,-3.0057,-3.0061,-3.0091,-3.01,-3.0108,0,0,0,0,0,0,-2.9786,-2.9805,-2.9797,-2.9847,-2.9865,-2.9882,-2.9908,-2.9899,-2.9923,-2.9919,-2.9916,-2.9921,-2.9968,-2.9977,-2.995,-3.0032,-3.0004,-3.0011,-3.0024,-3.0032,-3.0039,-3.0035,-2.9922,0,0,0,0,0,-2.9798,-2.9827,-2.9841,-2.9884,-2.9893,-2.99,-2.9916,-2.9913,-2.9932,-2.9939,-2.995,-2.9969,-2.9997,-3.0016,-3.0042,-3.0096,-3.0101,-3.0121,-3.0128,-3.0134,-3.0139,-3.0169,-3.0178,-3.0078,-3.0078,-3.0078,0,0,-2.9822,-2.9835,-2.9853,-2.9889,-2.9903,-2.9933,-2.9906,-2.9939,-2.9961,-2.9944,-2.9987,-2.9996,-3.0017,-3.0067,-3.009,-3.0076,-3.0168,-3.014,-3.0144,-3.0146,-3.0175,-3.0184,-3.0193,-3.0081,-3.0081,-3.008,0,0,-2.988,-2.9894,-2.993,-2.9946,-2.9968,-2.9972,-2.9981,-3.0,-3.0006,-3.0049,-3.0038,-3.0065,-3.0114,-3.0129,-3.0144,-3.0213,-3.0201,-3.0222,-3.0257,-3.0286,-3.0294,-3.0301,-3.0326,-3.0334,-3.0227,-3.0227,-3.0227,0,-2.9906,-2.9951,-2.9951,-2.9985,-3.0001,-2.9989,-3.0027,-3.0042,-3.0072,-3.0083,-3.0068,-3.0131,-3.0144,-3.0198,-3.0215,-3.0227,-3.0238,-3.0218,-3.0293,-3.03,-3.0307,-3.033,-3.0339,-3.023,-3.0229,-3.0229,-3.0229,0,-2.9983,-3.0015,-3.0042,-3.0071,-3.0092,-3.0127,-3.0133,-3.0154,-3.0151,-3.0157,-3.0203,-3.0219,-3.0249,-3.0263,-3.0259,-3.0317,-3.0308,-3.0293,-3.0265,-3.0319,-3.034,-3.0349,-3.0233,-3.0232,-3.0231,-3.0231,0,0,-3.0055,-3.0086,-3.0096,-3.011,-3.0135,-3.016,-3.0197,-3.0227,-3.0245,-3.0267,-3.0297,-3.0341,-3.0328,-3.0345,-3.0344,-3.037,-3.0424,-3.0353,-3.0353,-3.0365,-3.0489,-3.0498,-3.0509,-3.0418,-3.042,-3.0421,-3.0487,0,-3.0114,-3.0177,-3.018,-3.0238,-3.0267,-3.0258,-3.029,-3.031,-3.0318,-3.0345,-3.0354,-3.0385,-3.0366,-3.0376,-3.0402,-3.0412,-3.0449,-3.0408,-3.0446,-3.0448,-3.0439,-3.052,-3.053,-3.059,-3.0495,-3.0497,-3.0498,0,-3.0191,-3.0216,-3.0277,-3.03,-3.0313,-3.0341,-3.037,-3.0396,-3.0419,-3.0423,-3.0444,-3.044,-3.0479,-3.0452,-3.0505,-3.0477,-3.0494,-3.0502,-3.0504,-3.0506,-3.0474,-3.0523,-3.061,-3.0618,-3.0511,-3.051,-3.0509,0,-3.0237,-3.0286,-3.0329,-3.0342,-3.037,-3.039,-3.0403,-3.0424,-3.0443,-3.0469,-3.0481,-3.0512,-3.0528,-3.0552,-3.0557,-3.0537,-3.0611,-3.0584,-3.0615,-3.0615,-3.0629,-3.0628,-3.0718,-3.0643,-3.0643,-3.0643,-3.0642,0,-3.0302,-3.0339,-3.0351,-3.0377,-3.0419,-3.0423,-3.0465,-3.0476,-3.0496,-3.0525,-3.052,-3.0548,-3.0554,-3.0583,-3.0588,-3.0631,-3.0639,-3.0644,-3.0644,-3.0643,-3.0642,-3.0652,-3.0648,-3.0645,-3.0644,-3.0644,-3.0644,0,-3.0358,-3.0368,-3.0414,-3.0438,-3.0445,-3.0475,-3.0495,-3.0521,-3.053,-3.0567,-3.0576,-3.059,-3.0625,-3.0633,-3.0674,-3.0677,-3.0729,-3.0726,-3.0721,-3.072,-3.0751,-3.0747,-3.085,-3.0863,-3.078,-3.0781,-3.0782,0,-3.0398,-3.0427,-3.0454,-3.0473,-3.0487,-3.0518,-3.0538,-3.0544,-3.0565,-3.0595,-3.0617,-3.0652,-3.0679,-3.0735,-3.0749,-3.0781,-3.0778,-3.0812,-3.0782,-3.0781,-3.0777,-3.0775,-3.0778,-3.0816,-3.0817,-3.0818,-3.0818,0,-3.0468,-3.0472,-3.05,-3.0531,-3.0555,-3.0579,-3.0603,-3.0619,-3.0629,-3.0653,-3.0688,-3.071,-3.0753,-3.0787,-3.0819,-3.0833,-3.0828,-3.0828,-3.0837,-3.0835,-3.0831,-3.0833,-3.0735,-3.0825,-3.0824,-3.0824,-3.0823,-3.0823,-3.0516,-3.0542,-3.0566,-3.0598,-3.0617,-3.064,-3.0666,-3.0679,-3.0709,-3.0744,-3.0746,-3.0785,-3.081,-3.0853,-3.0869,-3.09,-3.089,-3.0903,-3.0906,-3.0909,-3.0911,-3.0828,-3.0907,-3.0906,-3.0906,-3.0906,-3.0906,0,-3.0585,-3.0601,-3.0631,-3.0664,-3.069,-3.0685,-3.0711,-3.0733,-3.0767,-3.0791,-3.0819,-3.0861,-3.0895,-3.0913,-3.0947,-3.0968,-3.0967,-3.0977,-3.0974,-3.0978,-3.0918,-3.0907,-3.0978,-3.0978,-3.0978,-3.0978,-3.0978,-3.0978,-3.0624,-3.0667,-3.0674,-3.0728,-3.0743,-3.0781,-3.0797,-3.0819,-3.0837,-3.0884,-3.0913,-3.0925,-3.0947,-3.0983,-3.1014,-3.1019,-3.1031,-3.1043,-3.1046,-3.0989,-3.0982,-3.0975,-3.0964,-3.1046,-3.1046,-3.1103,-3.1103,-3.1104]},{"header":{"parameterUnit":"m.s-1","parameterCategory":1,"la1":30.2991,"la2":30.254,"lo1":-89.0895,"lo2":-89.0444,"dy":0.0017,"dx":0.0017,"nx":28,"ny":28,"refTime":"2024-03-29T03:00:00:Z","depth":0,"parameterNumber":3,"parameterNumberName":"V-component_of_WINDS"},"data":[0,0,0,0,0,0,0,0,0,0,0,0,0,0,0,0,0,0,0,0,0,0,0,0,0,0,0,0,0,0,0,0,0,0,0,0,0,0,0,0,0,0,0,0,0,0,0,0,0,0,0,0,0,0,0,0,0,0,3.6352,3.6352,0,3.6386,3.6386,3.6387,3.6436,3.6437,3.6437,3.6438,3.6469,3.6469,3.6469,0,0,0,0,0,0,0,0,0,0,0,0,0,3.6326,3.6326,3.6352,3.6352,3.6353,3.6386,3.6386,3.6387,3.6436,3.6437,3.6438,3.6439,3.6469,3.6469,3.6469,0,0,0,0,0,0,0,0,0,0,0,0,0,3.6346,3.6326,3.6352,3.6381,3.6384,3.6386,3.6386,3.6387,3.6435,3.6437,3.6438,3.6439,3.6469,3.6469,3.6469,3.6443,0,0,3.6469,3.6469,0,0,0,0,0,0,0,0,3.6345,3.6347,3.6376,3.6379,3.6382,3.6408,3.6389,3.6406,3.6435,3.6416,3.6438,3.644,3.6447,3.6449,3.6453,3.6445,3.6446,3.6469,3.6469,3.6469,3.6469,0,0,0,0,0,0,0,3.6344,3.6346,3.6365,3.6377,3.638,3.6392,3.6396,3.6392,3.6424,3.6417,3.6421,3.6425,3.6449,3.6452,3.6454,3.6447,3.6469,3.6469,3.6469,3.6469,3.6421,3.642,0,0,0,0,0,0,3.6338,3.6344,3.6364,3.6366,3.6367,3.6391,3.6396,3.6398,3.6424,3.6429,3.6424,3.6427,3.6452,3.6454,3.6455,3.6428,3.6469,3.6469,3.6469,3.6422,3.6421,3.6419,0,0,0,0,0,0,3.6338,3.634,3.6363,3.6356,3.636,3.639,3.6393,3.6398,3.6402,3.6429,3.6434,3.6421,3.6453,3.6455,3.6447,3.643,3.6469,3.6469,3.6424,3.6422,3.642,3.6373,0,0,0,0,0,0,3.6337,3.6339,3.633,3.6356,3.636,3.6354,3.6392,3.6398,3.6402,3.6407,3.6428,3.6433,3.6454,3.6446,3.6447,3.643,3.6469,3.6426,3.6423,3.6421,3.6376,3.6369,3.6364,0,0,0,0,0,3.6336,3.6314,3.633,3.6332,3.635,3.6353,3.6356,3.6382,3.6401,3.6392,3.6409,3.6432,3.6431,3.6445,3.6446,3.6429,3.6427,3.6424,3.6421,3.6379,3.6371,3.6364,0,0,0,0,0,0,3.6284,3.6318,3.6335,3.6322,3.6335,3.6362,3.6351,3.6373,3.6379,3.6383,3.6414,3.6418,3.6406,3.6417,3.6431,3.6407,3.6433,3.643,3.64,3.6393,3.6387,3.6385,3.6469,0,0,0,0,0,3.6271,3.6272,3.6302,3.6287,3.6293,3.6321,3.6323,3.6342,3.6356,3.6361,3.6378,3.639,3.6392,3.6393,3.6397,3.6378,3.6383,3.6367,3.6361,3.6356,3.6353,3.6345,3.6338,3.641,3.641,3.641,0,0,3.6245,3.6263,3.6262,3.6277,3.6289,3.6289,3.6325,3.6322,3.6322,3.636,3.6355,3.6367,3.6382,3.6369,3.6363,3.6377,3.6334,3.6352,3.6348,3.6348,3.6341,3.6334,3.6328,3.6408,3.6408,3.6409,0,0,3.6196,3.621,3.62,3.6212,3.6231,3.625,3.6248,3.6272,3.6282,3.6277,3.6306,3.6306,3.6309,3.6319,3.6325,3.6282,3.6303,3.6282,3.625,3.6242,3.6236,3.6231,3.6216,3.621,3.6279,3.6279,3.6278,0,3.616,3.6162,3.6192,3.6189,3.6195,3.6231,3.6221,3.6231,3.6249,3.6252,3.6267,3.6274,3.6286,3.6276,3.6266,3.6269,3.6267,3.6279,3.6234,3.623,3.6226,3.6212,3.6206,3.6276,3.6276,3.6277,3.6277,0,3.6117,3.6118,3.6108,3.6127,3.6131,3.6124,3.6153,3.6154,3.6173,3.619,3.6185,3.6201,3.621,3.6209,3.6226,3.6201,3.6209,3.6229,3.6256,3.6216,3.6203,3.6198,3.6272,3.6273,3.6274,3.6275,0,0,3.6036,3.6074,3.6069,3.6079,3.6103,3.6103,3.6098,3.6108,3.6108,3.612,3.6116,3.6119,3.6138,3.6144,3.6164,3.6156,3.6122,3.6177,3.6178,3.6167,3.6096,3.6081,3.6075,3.6137,3.6136,3.6135,3.6095,0,3.5993,3.5988,3.6015,3.6002,3.6004,3.6039,3.6035,3.6048,3.6064,3.6067,3.6085,3.6087,3.6111,3.6116,3.611,3.6127,3.6108,3.6131,3.6133,3.6133,3.6129,3.6068,3.6053,3.6014,3.609,3.609,3.6089,0,3.5941,3.5952,3.594,3.5966,3.5967,3.5963,3.5975,3.5977,3.5994,3.6006,3.6014,3.6037,3.6033,3.6059,3.6054,3.6069,3.6071,3.608,3.6079,3.608,3.6109,3.6068,3.6002,3.5997,3.6082,3.6082,3.6083,0,3.5885,3.5896,3.5891,3.5897,3.5927,3.5924,3.5935,3.5953,3.5958,3.5968,3.5971,3.598,3.5984,3.599,3.6015,3.6031,3.6007,3.6035,3.6017,3.6017,3.601,3.6011,3.5944,3.6011,3.6012,3.6012,3.6012,0,3.5834,3.5825,3.5866,3.5862,3.5854,3.5885,3.5875,3.5891,3.5906,3.5906,3.5936,3.5935,3.5968,3.597,3.5989,3.5983,3.5984,3.5994,3.5999,3.5991,3.599,3.5993,3.5997,3.601,3.601,3.6011,3.6011,0,3.5769,3.5796,3.5792,3.5822,3.5829,3.5821,3.5846,3.5843,3.5862,3.5861,3.5863,3.5892,3.5896,3.5922,3.5931,3.5944,3.5931,3.5941,3.5926,3.5929,3.591,3.5912,3.5844,3.5837,3.5908,3.5907,3.5907,0,3.5734,3.5729,3.5758,3.5761,3.5772,3.5776,3.5781,3.5812,3.5816,3.5835,3.5831,3.5838,3.5846,3.5851,3.5872,3.588,3.5891,3.5866,3.5892,3.5885,3.5891,3.5891,3.5891,3.5861,3.586,3.5859,3.5859,0,3.5671,3.5685,3.5693,3.5705,3.5711,3.5722,3.5734,3.5735,3.5769,3.5772,3.5778,3.5784,3.5795,3.5802,3.5813,3.5825,3.5847,3.5851,3.5847,3.5839,3.5831,3.5836,3.5911,3.5852,3.5853,3.5853,3.5853,3.5854,3.5621,3.5618,3.5639,3.5646,3.5659,3.5671,3.5671,3.569,3.5696,3.5709,3.5726,3.573,3.5747,3.5765,3.5775,3.5778,3.579,3.5785,3.5784,3.5782,3.5778,3.583,3.578,3.578,3.578,3.578,3.578,0,3.556,3.5575,3.5582,3.56,3.5605,3.5628,3.5643,3.5646,3.565,3.5664,3.5672,3.5679,3.5686,3.5708,3.5717,3.5715,3.5726,3.5717,3.5717,3.572,3.5766,3.5768,3.5708,3.5708,3.5708,3.5708,3.5708,3.5708,3.5529,3.5526,3.5542,3.5546,3.5561,3.5566,3.5573,3.5584,3.5596,3.5603,3.561,3.5625,3.5642,3.5654,3.5661,3.5667,3.5669,3.5657,3.5666,3.5709,3.5716,3.5723,3.5725,3.5657,3.5657,3.562,3.562,3.5619]}]]